Location: Béaulencourt
(50.0796°N, 2.8795°E)
Time: 07:17:03
(UTC+00:00)

Dummy Sat-02 - Pass Details

Date: 20 January 2026
Orbit: 475 x 483 km, 86.4° (Epoch: 18 February)

Event Time Altitude Azimuth Distance (km) Brightness Sun altitude
Rises 05:23:17 0° 182° (S) 2,529 8.3 -21.0°
Reaches altitude 10° 05:25:21 10° 183° (S) 1,654 7.3 -20.7°
Maximum altitude 05:28:57 89° 271° (W) 487 4.4 -20.1°
Drops below altitude 10° 05:32:35 10° 4° (N) 1,664 7.2 -19.5°
Sets 05:34:41 0° 4° (N) 2,546 8.2 -19.2°
